Regional Weather Roundup
Issued by NWS

Home | Current Version | Previous Version | Text Only | Print | Product List | Glossary On
Versions: 1 2 3 4 5 6 7 8 9 10 11 12 13 14 15 16 17 18 19 20 21 22 23 24 25 26 27 28 29 30 31 32 33 34 35 36 37 38 39 40 41 42 43 44 45 46 47 48 49 50
000
ASUS42 KKEY 221910
RWRKEY

FLORIDA REGIONAL WEATHER ROUNDUP FOR THE FLORIDA KEYS
NATIONAL WEATHER SERVICE KEY WEST FLORIDA
200 PM EST MON DEC 22 2014

...SOUTH FLORIDA AND THE KEYS...

CITY           SKY/WX    TMP DP  RH WIND       PRES   REMARKS
FORT MYERS     MOSUNNY   80  69  69 SW12      29.93F
SW REGIONAL AP MOSUNNY   82  67  60 S15       29.94F
NAPLES         MOSUNNY   80  69  69 S12G21    29.94F
MIAMI          MOSUNNY   81  68  64 SE8       29.96F
WEST KENDALL   MOSUNNY   82  68  62 VRB7      29.96F
HOMESTEAD      NOT AVBL
MARATHON       MOSUNNY   81  74  79 S6        29.95F
BOCA CHICA NAS MOSUNNY   81  71  71 S12       29.95F
KEY WEST INTL  MOSUNNY   79  72  79 S12       29.96F

...INTERNATIONAL WEATHER...

CITY           SKY/WX    TMP DP  RH WIND       PRES   REMARKS
NASSAU BAHAMAS PTSUNNY   81  66  61 S7        30.01F
CANCUN MEXICO  CLOUDY    81  73  78 SE18      29.89F
COZUMEL MEXICO PTSUNNY   75  73  94 SE10      29.89F

ADJACENT COASTAL WATERS...

STATION/POSITION TIME  SKY/WX   TEMP    WIND        PRES    WAVE
                                AIR SEA DIR/SP/G            HT/PER
                 (UTC)          (F)     (DEG/KT/KT) (MB)    (FT/S)
PULASKI SHOAL LI 1800            76     150/  6/  6 1014.8F
SAND KEY         1830            77     160/ 12/ 14 1014.3F
SOMBRERO KEY     1900            79     160/  8/  9 1015.0F
LONG KEY         1900            77 74  160/  9/  9 1015.1F
MOLASSES REEF    1900            77 77  170/ 10/ 11 1014.6F
FOWEY ROCKS      1900            77 75  160/ 12/ 12 1015.0F
Buoy 42080       NOT AVBL

$$


USA.gov is the U.S. government's official web portal to all federal, state and local government web resources and services.